Tracking 31027 objects as of 19-Jul-2025
HD Live streaming from Space Station
objects crossing your sky now

STARLINK-30704

Track STARLINK-30704 now!
10-day predictions
STARLINK-30704 is classified as:


NORAD ID: 57946
Int'l Code: 2023-148M
Perigee: 481.1 km
Apogee: 483.6 km
Inclination: 53.2 °
Period: 94.1 minutes
Semi major axis: 6853 km
RCS: Unknown
Launch date: September 25, 2023
Source: United States (US)
Launch site: AIR FORCE WESTERN TEST RANGE (AFWTR)
Your satellite tracking list
FREGAT DEB
Track 1 satellite(s)




NASA's NSSDC Master Catalog

Two Line Element Set (TLE):
1 57946U 23148M   25199.44357421 -.00000381  00000-0 -71132-6 0  9999
2 57946  53.1603 109.4996 0001829  56.8007 303.3169 15.30202482101458
Source of the keplerian elements: AFSPC